Weather in Kamennomost

Russia / Karachay-Cherkess Republic     43°44′52″N   41°54′41″E
temp.,
°C
wind,
m/s
gust,
m/s
humid.,
%
clouds,
%
prec.,
mm/h
press.,
hPa
HPBL,
m
10 may, mon
mon1000:00−1w2697100 1.2 1025605
03:00−2wsw2299100 1.8 1026194
06:00−3s239698 0.4 1026122
09:00+1wnw237715 0.5 1023902
12:00+3nw457999 0.6 10211255
15:00+3nw2486100 2.2 1021809
18:00+1wnw13100100 3.0 1022165
21:000s119996 4.8 1022120
11 may, tue
tue1100:00−6se339472 0.0 102450
03:00−7se3391100 0.0 102353
06:00−3se2387100 0.1 102082
09:00+2se1275100 0.3 1017213
12:00+5nne1166100 0.2 1015705
15:00+5ese1175100 0.4 1015607
18:00+5e118360 0.1 1015151
21:00−1se229640 0.1 102018
12 may, wed
wed1200:00−1se239169 0.0 101946
03:00−3se33904 0.0 102037
06:000se2382100 0.0 101952
09:00+10nnw11510 0.0 1013380
12:00+13nnw21553 0.0 1013925
15:00+14nnw2259100 0.0 10131135
18:00+12nw12810 0.0 1014163
21:00+6se339199 0.0 101643
13 may, thu
thu1300:00+4se34734 0.0 101753
03:00+4se34695 0.0 101649
06:00+6se34697 0.0 101664
09:00+18se12410 0.0 1013393
12:00+22nw33330 0.0 10111688
15:00+22nnw34415 0.0 10111758
18:00+19nnw12725 0.1 101371
21:00+11se338899 0.3 101650
14 may, fri
fri1400:00+9se34722 0.0 101758
03:00+8se44680 0.0 101758
06:00+9se34614 0.0 101770
09:00+21sse12325 0.0 1014388
12:00+25nnw34255 0.0 10132302
15:00+24n323943 0.0 10121602
18:00+21nnw126625 0.0 101359
21:00+13sse228719 0.1 101536